Flag for United Kingdom Weather past 2 weeks in Stockport, England, United Kingdom

Now
48 °F

Mostly cloudy.


Feels Like: 39 °F
Forecast: 40 / 46 °F
Wind: 33 mph from West

Location: Manchester Airport

Current Time: Mar 31, 2015 at 3:06:57 AM

Latest Report: Mar 31, 2015 at 2:20 AM


Visibility: N/A

Pressure: 29.27 "Hg

Humidity: 76%

Dew point: 41 °F

Location of StockportLocation

Historic Weather in Stockport — Graph

°F

Stockport temperature yesterday

Maximum temperature yesterday: 52 °F (at 11:50 PM)
Minimum temperature yesterday: 39 °F (at 12:50 AM)
Average temperature yesterday: 44 °F

Past Weeks' High & Low Weather Summary

 TemperatureHumidityPressure
High55 °F (Mar 28, 11:50 AM)100% (Mar 18, 12:50 AM)30.60 "Hg (Mar 18, 12:50 AM)
Low27 °F (Mar 18, 6:20 AM)50% (Mar 25, 1:50 PM)29.21 "Hg (Mar 29, 10:50 AM)
Average42 °F80%30.03 "Hg
* Reported Mar 16 12:20 AM — Mar 31 1:50 AM, Stockport, Weather by CustomWeather, © 2015

Note: Actual official high and low records may vary slightly from our data, if they occured in-between our weather recording intervals... More about our weather records

Advertising

Stockport weather history for previous 24 hours

 ConditionsComfort  
Time TempWeatherWind HumidityBarometerVisibility
1:50 AM
Tue, Mar 31
48 °FPartly cloudy.39 mph82%29.27 "HgN/A
1:20 AM48 °FPartly cloudy.35 mph87%29.27 "HgN/A
12:20 AM52 °FLight rain. Mostly cloudy.28 mph82%29.24 "Hg4 mi
11:50 PM
Mon, Mar 30
52 °FLight rain. Partly cloudy.25 mph94%29.24 "HgN/A
11:20 PM50 °FRain. Partly cloudy.16 mph100%29.27 "Hg2 mi
10:50 PM50 °FPartly cloudy.15 mph100%29.30 "Hg2 mi
10:20 PM50 °FScattered showers. Partly cloudy.17 mph100%29.30 "HgN/A
9:50 PM48 °FRain. Partly cloudy.16 mph100%29.33 "Hg2 mi
9:20 PM46 °FRain. Partly cloudy.16 mph100%29.36 "Hg4 mi
8:50 PM46 °FRain. Partly cloudy.18 mph93%29.39 "Hg4 mi
8:20 PM45 °FLight rain. Partly sunny.18 mph100%29.39 "Hg4 mi
7:50 PM45 °FRain. Broken clouds.20 mph93%29.45 "Hg3 mi
7:20 PM43 °FRain. Broken clouds.18 mph100%29.47 "Hg4 mi
6:50 PM43 °FLight rain. Broken clouds.18 mph93%29.50 "Hg5 mi
6:20 PM43 °FLight rain. Partly sunny.17 mph93%29.53 "HgN/A
5:50 PM43 °FLight rain. Partly sunny.14 mph93%29.59 "HgN/A
5:20 PM43 °FLight rain. Partly sunny.13 mph87%29.62 "HgN/A
4:50 PM43 °FDrizzle. Partly sunny.13 mph87%29.65 "HgN/A
4:20 PM43 °FDrizzle. Overcast.10 mph87%29.68 "HgN/A
3:50 PM43 °FDrizzle. Partly sunny.18 mph87%29.71 "Hg5 mi
3:20 PM46 °FDrizzle. Partly sunny.17 mph66%29.71 "HgN/A
2:50 PM48 °FScattered clouds.17 mph58%29.74 "HgN/A
2:20 PM48 °FPassing clouds.17 mph54%29.74 "HgN/A
1:50 PM48 °FPassing clouds.17 mph50%29.74 "HgN/A
1:20 PM48 °FPassing clouds.17 mph50%29.77 "HgN/A
12:50 PM48 °FPassing clouds.18 mph50%29.77 "HgN/A
12:20 PM48 °FPassing clouds.23 mph50%29.77 "HgN/A
11:50 AM46 °FPassing clouds.20 mph57%29.80 "HgN/A
11:20 AM46 °FPassing clouds.20 mph62%29.80 "HgN/A
10:50 AM45 °FPassing clouds.20 mph71%29.77 "HgN/A
10:20 AM45 °FPassing clouds.16 mph66%29.77 "HgN/A
9:50 AM43 °FPassing clouds.16 mph76%29.77 "HgN/A
9:20 AM43 °FPassing clouds.14 mph71%29.77 "HgN/A
8:50 AM43 °FPassing clouds.13 mph71%29.74 "HgN/A
8:20 AM41 °FPassing clouds.13 mph70%29.74 "HgN/A
7:50 AM41 °FPassing clouds.12 mph70%29.74 "HgN/A
7:20 AM41 °FPassing clouds.13 mph70%29.71 "HgN/A
6:50 AM41 °FPassing clouds.14 mph70%29.68 "HgN/A
6:20 AM41 °FPassing clouds.15 mph70%29.68 "HgN/A
5:50 AM41 °FPassing clouds.18 mph70%29.65 "HgN/A
5:20 AM41 °FPassing clouds.18 mph70%29.62 "HgN/A
4:50 AM41 °FPartly cloudy.22 mph76%29.59 "HgN/A
4:20 AM41 °FPartly cloudy.22 mph87%29.59 "HgN/A
3:50 AM41 °FPartly cloudy.20 mph87%29.56 "HgN/A
3:20 AM41 °FLight rain. Partly cloudy.20 mph87%29.56 "HgN/A
Weather by CustomWeather, © 2015

See weather overviewHow to use our weather pages